Regional Weather Roundup
Issued by NWS

Home | Current Version | Previous Version | Text Only | Print | Product List | Glossary Off
Versions: 1 2 3 4 5 6 7 8 9 10 11 12 13 14 15 16 17 18 19 20 21 22 23 24 25 26 27 28 29 30 31 32 33 34 35 36 37 38 39 40 41 42 43 44 45 46 47 48 49 50

000
ASUS43 KFSD 140610
RWRSD

WEATHER ROUNDUP FOR SOUTH DAKOTA
NATIONAL WEATHER SERVICE SIOUX FALLS SD
100 AM CDT MON JUL 14 2014

NOTE: "FAIR" INDICATES FEW OR NO CLOUDS BELOW 12,000 FEET WITH NO
SIGNIFICANT WEATHER AND/OR OBSTRUCTIONS TO VISIBILITY.


SDZ001>005-009-010-012>017-140700-
NORTHWEST AND NORTH CENTRAL SOUTH DAKOTA

CITY           SKY/WX    TMP DP  RH WIND       PRES   REMARKS
BUFFALO          N/A     61  42  49 NE12      30.15R
FAITH            N/A     54  47  77 N9        30.16R
MOBRIDGE       CLEAR     51  48  89 N6        30.08R
$$

SDZ012>016-024>037-041>051-057-063-072>074-140700-
SOUTHWEST AND SOUTH CENTRAL SOUTH DAKOTA

CITY           SKY/WX    TMP DP  RH WIND       PRES   REMARKS
RAPID CTY ARPT CLEAR     57  52  83 NW8       30.19S
PIERRE         CLEAR     58  49  72 N7        30.08R
CUSTER         CLEAR     57  47  69 N5        30.30S
ELLSWORTH AFB  CLEAR     60  53  77 NW7       30.18F
PHILIP         MOCLDY    63  50  62 N7        30.13R
PINE RIDGE     CLEAR     62  57  83 NE6       30.18R
WINNER         FAIR      65  53  65 NW5       30.10R
$$

SDZ004>011-016>023-039-040-140700-
NORTHEAST SOUTH DAKOTA

CITY           SKY/WX    TMP DP  RH WIND       PRES   REMARKS
ABERDEEN       CLEAR     54  46  74 NW9       30.03S
WATERTOWN      CLEAR     60  50  69 NW8       30.00F
SISSETON         N/A     61  50  67 NW9       29.98S
$$

SDZ017-020-022-023-036>040-048>070-140700-
SOUTHEAST SOUTH DAKOTA

CITY           SKY/WX    TMP DP  RH WIND       PRES   REMARKS
SIOUX FALLS    CLEAR     58  48  69 NW9       30.00S
HURON          CLEAR     53  48  83 NW6       30.02F
CHAMBERLAIN    CLEAR     63  53  69 N3        30.08R
MITCHELL       CLEAR     58  49  72 NW8       30.04R
YANKTON        PTCLDY    64  52  63 W7        30.04R
$$

ABBREVIATIONS USED IN REMARKS
   TC - TEMPERATURE IN CELSIUS
  WCI - WIND CHILL INDEX
   HX - HEAT INDEX
  VSB - VISIBILITY




USA.gov is the U.S. government's official web portal to all federal, state and local government web resources and services.